Weather reports worldwide

Advertisment
Chania/Souda, Greece (16746): temperature & dewpoint: 26.10.2020 02:00:00 - 01.11.2020 02:00:00 (EET)Chania/Souda, Greece (16746): wind speed: 26.10.2020 02:00:00 - 01.11.2020 02:00:00 (EET)Chania/Souda, Greece (16746): wind direction: 26.10.2020 02:00:00 - 01.11.2020 02:00:00 (EET)Chania/Souda, Greece (16746): reduced air pressure: 26.10.2020 02:00:00 - 01.11.2020 02:00:00 (EET)Chania/Souda, Greece (16746): visibility: 26.10.2020 02:00:00 - 01.11.2020 02:00:00 (EET)
Date & Time tt [°C] td [°C] ff [km/h] ff [kn] dd ppp [hPa] vv [km]
01.11.2020 02:00:00 13,0 11,1 0 0 N 1018,3 10
01.11.2020 01:00:00 14,0 10,0 0 0 N - 10
01.11.2020 00:00:00 14,0 10,0 0 0 N - 10
31.10.2020 23:00:00 13,6 11,4 5 3 - 1018,3 10
31.10.2020 22:00:00 14,0 11,0 5 3 - - 10
31.10.2020 21:00:00 14,0 12,0 8 4 NE - 10
31.10.2020 20:00:00 17,0 12,7 8 4 NE 1018,0 10
31.10.2020 19:00:00 18,0 12,0 8 4 NE - 10
31.10.2020 18:00:00 18,0 12,0 8 4 NE - 10
31.10.2020 17:00:00 18,8 12,0 11 6 NE 1018,0 10
31.10.2020 16:00:00 20,0 14,0 13 7 NE - 10
31.10.2020 15:00:00 20,0 14,0 15 8 NE - 10
31.10.2020 14:00:00 19,6 12,9 9 5 ENE 1018,9 10
31.10.2020 13:00:00 20,0 14,0 9 5 ENE - 10
31.10.2020 12:00:00 21,0 13,0 18 10 ENE - 10
31.10.2020 11:00:00 19,2 13,6 15 8 NE 1019,9 10
31.10.2020 10:00:00 20,0 14,0 15 8 ENE - 10
31.10.2020 09:00:00 19,0 14,0 18 10 ENE - 10
31.10.2020 08:00:00 19,0 12,2 18 10 ENE 1019,0 10
31.10.2020 07:00:00 19,0 15,0 18 10 E - 10
31.10.2020 06:00:00 18,0 16,0 18 10 E - 10
31.10.2020 05:00:00 18,2 15,5 15 8 E 1017,9 10
31.10.2020 04:00:00 15,0 14,0 0 0 N - 10
31.10.2020 03:00:00 15,0 14,0 0 0 N - 8
31.10.2020 02:00:00 15,6 13,5 0 0 N 1018,0 10
31.10.2020 01:00:00 16,0 14,0 0 0 N - 10
31.10.2020 00:00:00 16,0 14,0 0 0 N - 10
30.10.2020 23:00:00 16,4 13,9 0 0 N 1018,0 10
30.10.2020 22:00:00 17,0 14,0 9 5 WNW - 10
30.10.2020 21:00:00 18,0 14,0 9 5 WNW - 10
30.10.2020 20:00:00 17,6 13,8 9 5 WNW 1017,4 10
30.10.2020 19:00:00 18,0 16,0 15 8 WNW - 10
30.10.2020 18:00:00 18,0 15,0 18 10 WNW - 10
30.10.2020 17:00:00 20,2 15,1 15 8 WNW 1016,5 10
30.10.2020 16:00:00 21,0 16,0 22 12 WNW - 10
30.10.2020 15:00:00 22,0 16,0 18 10 WNW - 10
30.10.2020 14:00:00 22,2 15,9 18 10 WNW 1017,0 10
30.10.2020 13:00:00 22,0 16,0 22 12 WNW - 10
30.10.2020 12:00:00 22,0 17,0 13 7 NW - 10
30.10.2020 11:00:00 21,0 16,0 11 6 WNW 1017,6 10
30.10.2020 10:00:00 21,0 16,0 15 8 NNW - 10
30.10.2020 09:00:00 20,0 16,0 15 8 W - 10
30.10.2020 08:00:00 17,4 13,2 0 0 N 1017,4 10
30.10.2020 07:00:00 16,0 14,0 0 0 N - 10
30.10.2020 06:00:00 15,0 14,0 0 0 N - 10
30.10.2020 05:00:00 14,6 13,2 0 0 N 1017,1 10
30.10.2020 04:00:00 15,0 13,0 0 0 N - 10
30.10.2020 03:00:00 16,0 14,0 0 0 N - 10
30.10.2020 02:00:00 15,0 13,6 0 0 N 1017,4 10
30.10.2020 01:00:00 15,0 14,0 0 0 N - 10
30.10.2020 00:00:00 15,0 14,0 5 3 - - 10
29.10.2020 23:00:00 16,2 14,1 5 3 - 1017,3 10
29.10.2020 22:00:00 17,0 15,0 15 8 W - 10
29.10.2020 21:00:00 17,0 15,0 15 8 W - 10
29.10.2020 20:00:00 18,0 14,6 11 6 NW 1016,7 10
29.10.2020 19:00:00 18,0 15,0 9 5 NW - 10
29.10.2020 18:00:00 20,0 15,0 9 5 NW - 10
29.10.2020 17:00:00 20,2 14,8 15 8 NW 1014,5 10
29.10.2020 16:00:00 22,0 16,0 28 15 NNW - 10
29.10.2020 15:00:00 22,0 16,0 22 12 NNW - 10
29.10.2020 14:00:00 21,8 15,9 31 17 WNW 1014,6 10
29.10.2020 13:00:00 22,0 15,0 28 15 WNW - 10
29.10.2020 12:00:00 22,0 14,0 16 9 NNW - 10
29.10.2020 11:00:00 21,6 15,3 28 15 WNW 1014,6 10
29.10.2020 10:00:00 21,0 16,0 22 12 W - 10
29.10.2020 09:00:00 20,0 16,0 18 10 W - 10
29.10.2020 08:00:00 18,6 14,1 22 12 W 1012,7 10
29.10.2020 07:00:00 18,0 13,0 15 8 W - 10
29.10.2020 06:00:00 17,0 14,0 18 10 W - 10
29.10.2020 05:00:00 17,2 14,8 8 4 WSW 1010,9 10
29.10.2020 04:00:00 17,0 14,0 15 8 W - 9
29.10.2020 03:00:00 18,0 12,0 22 12 W - 10
29.10.2020 02:00:00 18,4 12,3 22 12 W 1010,3 10
29.10.2020 01:00:00 16,0 12,0 18 10 WSW - 10
29.10.2020 00:00:00 16,0 13,0 8 4 W - 10
28.10.2020 23:00:00 16,2 12,6 8 4 W 1011,5 10
28.10.2020 22:00:00 18,0 14,0 9 5 WSW - 10
28.10.2020 21:00:00 17,0 15,0 11 6 W - 10
28.10.2020 20:00:00 17,2 13,3 8 4 WSW 1011,9 10
28.10.2020 19:00:00 17,0 13,0 9 5 W - 10
28.10.2020 18:00:00 17,0 15,0 9 5 W - 10
28.10.2020 17:00:00 19,2 14,0 11 6 WSW 1011,3 10
28.10.2020 16:00:00 20,0 14,0 16 9 W - 10
28.10.2020 15:00:00 22,0 13,0 9 5 W - 10
28.10.2020 14:00:00 21,2 13,2 11 6 WSW 1010,7 10
28.10.2020 13:00:00 22,0 15,0 11 6 NNW - 10
28.10.2020 12:00:00 22,0 15,0 11 6 ENE - 10
28.10.2020 11:00:00 19,8 14,3 8 4 NNW 1011,1 10
28.10.2020 10:00:00 18,0 15,0 8 4 NNW - 10
28.10.2020 09:00:00 15,0 14,0 29 16 SSE - 10
28.10.2020 08:00:00 14,6 13,5 26 14 SSE 1012,2 7
28.10.2020 07:00:00 16,0 14,0 8 4 SSE - 6
28.10.2020 06:00:00 16,0 14,0 46 25 W - 5
28.10.2020 05:00:00 17,0 15,3 0 0 N 1011,1 10
28.10.2020 04:00:00 18,0 15,0 0 0 N - 10
28.10.2020 03:00:00 18,0 15,0 0 0 N - 10
28.10.2020 02:00:00 17,8 15,4 0 0 N 1011,9 10
28.10.2020 01:00:00 17,0 15,0 0 0 N - 10
28.10.2020 00:00:00 17,0 15,0 0 0 N - 10
27.10.2020 23:00:00 17,6 14,9 0 0 N 1014,0 10
27.10.2020 22:00:00 18,0 15,0 0 0 N - 10
27.10.2020 21:00:00 18,0 16,0 8 4 W - 10
27.10.2020 20:00:00 17,6 15,9 8 4 NW 1014,0 10
27.10.2020 19:00:00 19,0 16,0 11 6 NW - 10
27.10.2020 18:00:00 19,0 16,0 11 6 NW - 10
27.10.2020 17:00:00 20,8 15,4 18 10 NW 1013,3 10
27.10.2020 16:00:00 22,0 15,0 22 12 WNW - 10
27.10.2020 15:00:00 22,0 16,0 18 10 NNW - 10
27.10.2020 14:00:00 22,2 15,6 15 8 NNW 1013,8 10
27.10.2020 13:00:00 22,0 15,0 16 9 NNW - 10
27.10.2020 12:00:00 21,0 16,0 11 6 W - 10
27.10.2020 11:00:00 21,0 15,3 16 9 W 1014,6 10
27.10.2020 10:00:00 21,0 15,0 18 10 W - 10
27.10.2020 09:00:00 20,0 15,0 11 6 W - 10
27.10.2020 08:00:00 18,2 14,4 0 0 N 1014,3 10
27.10.2020 07:00:00 16,0 14,0 0 0 N - 10
27.10.2020 06:00:00 15,0 13,0 5 3 - - 10
27.10.2020 05:00:00 16,0 12,4 4 2 - 1014,9 10
27.10.2020 04:00:00 16,0 12,0 5 3 - - 10
27.10.2020 03:00:00 - - - - - - -
27.10.2020 02:00:00 16,4 12,1 5 3 - 1015,5 10
27.10.2020 01:00:00 16,0 12,0 0 0 N - 10
27.10.2020 00:00:00 16,0 12,0 5 3 - - 10
26.10.2020 23:00:00 17,4 14,6 0 0 N 1015,4 10
26.10.2020 22:00:00 18,0 15,0 0 0 N - 10
26.10.2020 21:00:00 18,0 15,0 0 0 N - 10
26.10.2020 20:00:00 17,8 14,7 0 0 N 1014,6 10
26.10.2020 19:00:00 19,0 15,0 11 6 W - 10
26.10.2020 18:00:00 19,0 15,0 15 8 W - 10
26.10.2020 17:00:00 21,0 16,0 22 12 NNW 1013,8 10
26.10.2020 16:00:00 22,0 15,0 0 0 N - 10
26.10.2020 15:00:00 22,0 15,0 15 8 NNW - 10
26.10.2020 14:00:00 24,0 14,6 18 10 NNW 1014,0 10
26.10.2020 13:00:00 23,0 17,0 15 8 W - 10
26.10.2020 12:00:00 24,0 14,0 16 9 W - 10
26.10.2020 11:00:00 22,4 15,0 13 7 W 1014,7 10
26.10.2020 10:00:00 21,0 13,0 16 9 W - 10
26.10.2020 09:00:00 20,0 14,0 16 9 W - 10
26.10.2020 08:00:00 19,0 14,2 18 10 W 1014,5 10
26.10.2020 07:00:00 18,0 14,0 18 10 W - 10
26.10.2020 06:00:00 19,0 14,0 15 8 WNW - 10
26.10.2020 05:00:00 18,2 14,0 22 12 NW 1013,9 10
26.10.2020 04:00:00 18,0 15,0 22 12 WNW - 10
26.10.2020 03:00:00 19,0 15,0 28 15 NW - 10
26.10.2020 02:00:00 18,8 16,1 22 12 WNW 1014,5 10

tt = temperature
td = dewpoint
ff = wind speed
dd = wind direction
ppp = reduced air pressure
vv = visibility

Next stations